Station 45139 - West Lake Ontario - Grimsby Image indicating link to RSS feed of recent meteorological observations for station 45139

Data from this station are not quality controlled by NDBC


Conditions at 45139 as of
(2:00 pm EDT)
1800 GMT on 06/23/2024:
     

Click on the graph icon in the table below to see a time series plot of the last five days of that observation.

5-day plot - Wind Direction Wind Direction (WDIR): SW ( 220 deg true )
5-day plot - Wind Speed Wind Speed (WSPD): 19.4 kts
5-day plot - Wind Gust Wind Gust (GST): 25.3 kts
5-day plot - Wave Height Wave Height (WVHT): 2.0 ft
5-day plot - Dominant Wave Period Dominant Wave Period (DPD): 3 sec
5-day plot - Atmospheric Pressure Atmospheric Pressure (PRES):29.51 in
5-day plot - Pressure Tendency Pressure Tendency (PTDY):-0.02 in ( Falling )
5-day plot - Air Temperature Air Temperature (ATMP): 73.9 °F
5-day plot - Water Temperature Water Temperature (WTMP): 64.2 °F
5-day plot -  Wind Speed, Wind Gust and Atmospheric Pressure Combined plot of Wind Speed, Gust, and Air Pressure

Data from this station are not quality controlled by NDBC

Previous observations
TIME
(EDT)
5-day plot - Wind Direction
WDIR
 
5-day plot - Wind Speed
WSPD
kts
5-day plot - Wind Gust
GST
kts
5-day plot - Wave Height
WVHT
ft
5-day plot - Dominant Wave Period
DPD
sec
5-day plot - Average Wave Period
APD
sec
5-day plot - Mean Wave Direction
MWD
 
5-day plot - Atmospheric Pressure
PRES
in
5-day plot - Pressure Tendency
PTDY
in
5-day plot - Air Temperature
ATMP
°F
5-day plot - Water Temperature
WTMP
°F
5-day plot - Dew Point
DEWP
°F
5-day plot - Salinity
SAL
psu
5-day plot - Visibility
VIS
nmi
5-day plot - Tide (above MLLW)
TIDE
ft
2024-06-23 01:00 pm SW 21.4 27.2 2.3 3--29.51-0.02 74.7 65.5----
2024-06-23 12:00 pm SW 17.5 23.3 2.0 3--29.51-0.03 75.6 66.0----
2024-06-23 11:00 am SW 19.4 23.3 1.6 3--29.53+0.00 74.7 66.2----
2024-06-23 10:00 am SW 15.5 19.4 1.0 2--29.54-0.01 74.1 67.3----
2024-06-23 09:00 amWSW 17.5 23.3 1.6 3--29.54-0.03 75.4 67.1----
2024-06-23 08:00 am SW 17.5 21.4 1.6 3--29.53-0.06 78.1 67.5----
2024-06-23 07:00 amSSW 17.5 21.4 1.6 3--29.55-0.08 77.7 68.0----
2024-06-23 06:00 amSSW 17.5 21.4 1.3 3--29.57-0.09 77.2 68.0----
2024-06-23 05:00 amSSW 15.5 17.5 1.3 3--29.59-0.09 76.6 68.2----
2024-06-23 04:00 am SW 5.8 11.7 1.3 4--29.62-0.13 71.8 68.2----
2024-06-23 03:00 am NW 3.9 3.9 1.3 4--29.65-0.10 68.2 68.0----
2024-06-23 02:00 am S 3.9 5.8 1.6 4--29.68-0.09 68.0 68.0----
2024-06-23 01:00 amWSW 3.9 7.8 2.0 4--29.75-0.04 68.0 68.2----
2024-06-23 12:00 am W 5.8 7.8 2.3 4--29.75-0.06 68.7 68.2----
2024-06-22 11:00 pm W 3.9 3.9 2.6 4--29.78-0.07 68.5 68.2----
2024-06-22 10:00 pmESE 9.7 11.7 2.6 4--29.79-0.08 68.2 68.4----
2024-06-22 09:00 pm E 13.6 15.5 2.6 4--29.82-0.05 68.5 68.7----
2024-06-22 08:00 pmENE 11.7 13.6 2.3 4--29.85-0.03 68.2 69.1----
2024-06-22 07:00 pm NE 7.8 9.7 2.3 4--29.87-0.03 68.4 69.4----
2024-06-22 06:00 pmNNE 9.7 11.7 2.0 4--29.87-0.04 69.1 69.6----
2024-06-22 05:00 pm E 5.8 5.8 2.0 4--29.88-0.06 69.4 69.6----
2024-06-22 04:00 pm E 7.8 9.7 1.6 4--29.90-0.06 69.6 69.4----
2024-06-22 03:00 pm E 9.7 13.6 1.3 3--29.91-0.07 69.4 69.6----
2024-06-22 02:00 pmENE 9.7 11.7 0.7 2--29.94-0.07 69.8 70.0----